Marshall, MI

5:21 AM EDT on September 24, 2017 (GMT -0400)
Brooks

Weather History for KRMY - April, 2013

Change the Weather History Date:

Thursday, April 4, 2013

  Actual Average (KBTL) Record (KBTL)
Temperature  
Mean Temperature 40 °F -  
Max Temperature 55 °F 51 °F 75 °F (1997)
Min Temperature 25 °F 32 °F 22 °F (2015)
Degree Days  
Heating Degree Days 25    
Moisture  
Dew Point 13 °F    
Average Humidity 36    
Maximum Humidity 60    
Minimum Humidity 17    
Precipitation  
Precipitation 0.00 in - - ()
Sea Level Pressure  
Sea Level Pressure 30.13 in    
Wind  
Wind Speed 5 mph (SSW)    
Max Wind Speed 14 mph    
Max Gust Speed 18 mph    
Visibility 10 miles    
Events      
Averages and records for this station are not official NWS values.
T = Trace of Precipitation, MM = Missing Value Source: NWS Daily Summary

Daily Weather History Graph

Daily Weather History Graph

Search for Another Location

Airport or City:

Trip Planner

Search our weather history database for the weather conditions in past years. The results will help you decide how hot, cold, wet, or windy it might be!

Date:

Astronomy

Apr. 04, 2013 Rise Set
Actual Time 7:16 AM EDT 8:09 PM EDT
Civil Twilight 6:48 AM EDT 8:37 PM EDT
Nautical Twilight 6:14 AM EDT 9:11 PM EDT
Astronomical Twilight 5:39 AM EDT 9:47 PM EDT
Moon 3:49 AM EDT (4/4) 2:20 PM EDT (4/4)
Length of Visible Light 13h 49m
Length of Day
12h 52m
Waning Crescent, 34% of the Moon is Illuminated
Apr 4
Waning Crescent
Apr 10
New
Apr 18
First Quarter
Apr 25
Full
May 2
Last Quarter

Hourly Weather History & Observations

Time (EDT) Temp. Windchill Dew Point Humidity Pressure Visibility Wind Dir Wind Speed Gust Speed Precip Events Conditions
12:13 AM 28.8 °F 25.0 °F 14.5 °F 55% 30.32 in 10.0 mi SSE 3.5 mph - N/A   Clear
12:34 AM 29.5 °F 25.9 °F 13.3 °F 51% 30.32 in 10.0 mi SSE 3.5 mph - N/A   Clear
12:53 AM 27.9 °F 24.0 °F 14.4 °F 57% 30.32 in 10.0 mi WNW 3.5 mph - N/A   Clear
1:13 AM 26.8 °F - 14.5 °F 60% 30.32 in 10.0 mi Calm Calm - N/A   Clear
1:34 AM 25.7 °F - 13.6 °F 60% 30.32 in 10.0 mi Calm Calm - N/A   Clear
1:54 AM 27.0 °F - 13.5 °F 57% 30.32 in 10.0 mi Calm Calm - N/A   Clear
2:13 AM 28.2 °F 24.4 °F 12.0 °F 51% 30.31 in 10.0 mi SSE 3.5 mph - N/A   Clear
2:34 AM 29.7 °F - 13.6 °F 51% 30.31 in 10.0 mi Calm Calm - N/A   Clear
2:53 AM 28.4 °F 23.3 °F 14.0 °F 55% 30.30 in 10.0 mi SSE 4.6 mph - N/A   Clear
3:13 AM 28.2 °F 24.4 °F 14.0 °F 55% 30.29 in 10.0 mi South 3.5 mph - N/A   Clear
3:34 AM 28.6 °F 22.4 °F 14.0 °F 54% 30.29 in 10.0 mi South 5.8 mph - N/A   Clear
3:53 AM 28.2 °F 22.0 °F 14.2 °F 56% 30.29 in 10.0 mi South 5.8 mph - N/A   Clear
4:13 AM 28.2 °F 22.0 °F 14.2 °F 56% 30.29 in 10.0 mi South 5.8 mph - N/A   Clear
4:34 AM 28.6 °F 22.4 °F 14.0 °F 54% 30.28 in 10.0 mi South 5.8 mph - N/A   Clear
4:53 AM 28.6 °F 22.4 °F 13.6 °F 54% 30.27 in 10.0 mi South 5.8 mph - N/A   Clear
5:13 AM 28.2 °F 21.0 °F 13.8 °F 55% 30.27 in 10.0 mi South 6.9 mph - N/A   Clear
5:34 AM 28.2 °F 21.0 °F 14.0 °F 55% 30.26 in 10.0 mi South 6.9 mph - N/A   Clear
5:53 AM 28.2 °F 22.0 °F 14.2 °F 56% 30.25 in 10.0 mi South 5.8 mph - N/A   Clear
6:13 AM 28.0 °F 24.2 °F 13.8 °F 55% 30.25 in 10.0 mi South 3.5 mph - N/A   Clear
6:34 AM 27.5 °F 23.6 °F 13.6 °F 56% 30.24 in 10.0 mi South 3.5 mph - N/A   Clear
6:53 AM 27.7 °F 21.3 °F 13.5 °F 55% 30.23 in 10.0 mi South 5.8 mph - N/A   Clear
7:13 AM 27.9 °F 24.0 °F 14.0 °F 56% 30.23 in 10.0 mi South 3.5 mph - N/A   Clear
7:34 AM 27.9 °F 21.5 °F 14.2 °F 57% 30.23 in 10.0 mi South 5.8 mph - N/A   Clear
7:53 AM 28.9 °F 25.2 °F 14.5 °F 55% 30.23 in 10.0 mi South 3.5 mph - N/A   Clear
8:13 AM 29.8 °F 24.9 °F 14.9 °F 54% 30.23 in 10.0 mi South 4.6 mph - N/A   Clear
8:34 AM 31.3 °F 24.7 °F 14.9 °F 51% 30.22 in 10.0 mi South 6.9 mph - N/A   Clear
8:53 AM 32.5 °F 26.2 °F 14.7 °F 48% 30.22 in 10.0 mi South 6.9 mph - N/A   Clear
9:13 AM 34.2 °F 29.0 °F 14.7 °F 45% 30.21 in 10.0 mi South 5.8 mph - N/A   Clear
9:34 AM 35.1 °F 30.1 °F 14.5 °F 43% 30.20 in 10.0 mi South 5.8 mph - N/A   Clear
9:53 AM 36.9 °F 31.4 °F 14.7 °F 40% 30.19 in 10.0 mi South 6.9 mph - N/A   Clear
10:13 AM 38.7 °F 33.6 °F 14.4 °F 37% 30.18 in 10.0 mi SSW 6.9 mph - N/A   Clear
10:34 AM 39.7 °F 37.6 °F 13.8 °F 35% 30.18 in 10.0 mi South 3.5 mph - N/A   Clear
10:53 AM 41.9 °F 37.5 °F 12.9 °F 31% 30.17 in 10.0 mi SSW 6.9 mph - N/A   Clear
11:14 AM 43.7 °F 39.1 °F 12.9 °F 29% 30.16 in 10.0 mi SSW 8.1 mph - N/A   Clear
11:34 AM 44.6 °F 40.2 °F 12.4 °F 27% 30.16 in 10.0 mi SW 8.1 mph - N/A   Clear
11:53 AM 45.7 °F 41.5 °F 11.3 °F 25% 30.15 in 10.0 mi SSW 8.1 mph - N/A   Clear
12:34 PM 47.7 °F - 12.2 °F 24% 30.12 in 10.0 mi WSW 11.5 mph - N/A   Clear
12:53 PM 48.2 °F - 12.2 °F 24% 30.11 in 10.0 mi WSW 10.4 mph - N/A   Clear
1:14 PM 49.6 °F - 12.6 °F 23% 30.10 in 10.0 mi SSW 11.5 mph 17.3 mph N/A   Clear
1:33 PM 49.8 °F - 11.8 °F 22% 30.09 in 10.0 mi SW 9.2 mph - N/A   Clear
1:53 PM 50.0 °F - 12.0 °F 22% 30.07 in 10.0 mi SSW 8.1 mph - N/A   Clear
2:14 PM 51.4 °F - 12.7 °F 21% 30.06 in 10.0 mi SSW 8.1 mph 16.1 mph N/A   Clear
2:33 PM 51.8 °F - 11.7 °F 20% 30.05 in 10.0 mi West 8.1 mph - N/A   Clear
2:53 PM 53.2 °F - 11.3 °F 19% 30.04 in 10.0 mi SW 11.5 mph 17.3 mph N/A   Clear
3:14 PM 54.0 °F - 11.3 °F 18% 30.03 in 10.0 mi SW 12.7 mph 18.4 mph N/A   Clear
3:33 PM 54.0 °F - 11.5 °F 18% 30.02 in 10.0 mi West 11.5 mph 16.1 mph N/A   Clear
3:53 PM 54.5 °F - 11.8 °F 18% 30.01 in 10.0 mi SSW 9.2 mph 16.1 mph N/A   Clear
4:14 PM 54.9 °F - 11.8 °F 18% 30.00 in 10.0 mi WSW 8.1 mph - N/A   Clear
4:33 PM 55.0 °F - 11.5 °F 18% 29.99 in 10.0 mi West 12.7 mph - N/A   Clear
4:53 PM 54.7 °F - 11.1 °F 18% 29.99 in 10.0 mi SW 11.5 mph - N/A   Clear
5:14 PM 55.4 °F - 11.3 °F 17% 29.98 in 10.0 mi SW 11.5 mph - N/A   Clear
5:33 PM 55.0 °F - 11.1 °F 17% 29.98 in 10.0 mi WSW 12.7 mph 16.1 mph N/A   Clear
5:53 PM 55.0 °F - 11.3 °F 18% 29.97 in 10.0 mi SW 8.1 mph 17.3 mph N/A   Clear
6:14 PM 54.9 °F - 11.7 °F 18% 29.97 in 10.0 mi WSW 11.5 mph - N/A   Clear
6:33 PM 54.5 °F - 11.7 °F 18% 29.96 in 10.0 mi SW 9.2 mph 17.3 mph N/A   Clear
6:53 PM 54.1 °F - 10.2 °F 17% 29.96 in 10.0 mi West 13.8 mph - N/A   Clear
7:14 PM 53.1 °F - 10.9 °F 19% 29.96 in 10.0 mi West 10.4 mph - N/A   Clear
7:33 PM 52.0 °F - 13.1 °F 21% 29.96 in 10.0 mi West 5.8 mph - N/A   Clear
7:53 PM 49.5 °F - 12.7 °F 23% 29.96 in 10.0 mi West 10.4 mph - N/A   Clear
8:13 PM 46.0 °F 41.9 °F 12.0 °F 25% 29.96 in 10.0 mi West 8.1 mph - N/A   Clear
8:33 PM 45.1 °F 40.8 °F 10.4 °F 24% 29.96 in 10.0 mi West 8.1 mph - N/A   Clear
8:54 PM 44.2 °F 41.0 °F 9.7 °F 24% 29.96 in 10.0 mi WSW 5.8 mph - N/A   Clear
9:13 PM 43.2 °F 39.7 °F 9.0 °F 25% 29.96 in 10.0 mi West 5.8 mph - N/A   Clear
9:33 PM 43.0 °F 41.3 °F 9.9 °F 26% 29.97 in 10.0 mi WNW 3.5 mph - N/A   Clear
9:54 PM 43.7 °F 42.1 °F 10.2 °F 26% 29.98 in 10.0 mi WNW 3.5 mph - N/A   Scattered Clouds
10:13 PM 41.7 °F - 14.0 °F 32% 29.97 in 10.0 mi Calm Calm - N/A   Mostly Cloudy
10:33 PM 43.2 °F - 12.7 °F 29% 29.97 in 10.0 mi Calm Calm - N/A   Overcast
10:53 PM 42.1 °F - 16.3 °F 35% 29.96 in 10.0 mi Calm Calm - N/A   Overcast
11:14 PM 43.2 °F - 13.6 °F 30% 29.95 in 10.0 mi Calm Calm - N/A   Overcast
11:33 PM 43.2 °F - 15.1 °F 32% 29.95 in 10.0 mi Calm Calm - N/A   Overcast
11:53 PM 42.3 °F - 19.9 °F 41% 29.94 in 10.0 mi Calm Calm - N/A   Overcast